Retour au catalogue

STARLINK-32013

ActifCommunicationsVLEO
NORAD 60103·PAYLOAD·🇺🇸 United States

Lancé Jun 23, 2024 depuis Cape Canaveral Space Force Station

Loading…

Prochains Passages (prochaines 24 heures)

TLE

FraisSource: CelesTrak SupGP

Époque: Sep 14, 2026, 20:35 UTC

1 60103C 24117N   26257.85812500  .00044919  00000+0  13272-2 0  2576
2 60103  53.1564 236.3970 0001255  99.6360  59.7111 15.34366924    10

Suivez STARLINK-32013 en temps réel avec AllMySat

Download on the App Store